H1 CPF 2 NER 2022 5 15 9 135 01 glonass139 H2 1808601 9139 43687 2022 5 15 0 0 0 2022 5 18 23 45 0 900 1 1 0 0 0 1 H9 10 0 59714 0.00000 0 18731142.502 -4626089.980 -16668819.663 10 0 59714 900.00000 0 20638213.235 -4434328.567 -14304095.088 10 0 59714 1800.00000 0 22246694.794 -4406362.770 -11661229.690 10 0 59714 2700.00000 0 23513482.047 -4500552.663 -8791658.396 10 0 59714 3600.00000 0 24406592.271 -4668473.134 -5751206.217 10 0 59714 4500.00000 0 24906388.336 -4857191.661 -2598996.413 10 0 59714 5400.00000 0 25006300.413 -5011741.376 603704.386 10 0 59714 6300.00000 0 24713016.895 -5077683.780 3794681.044 10 0 59714 7200.00000 0 24046137.716 -5003651.900 6911980.802 10 0 59714 8100.00000 0 23037305.738 -4743765.705 9895116.321 10 0 59714 9000.00000 0 21728853.824 -4259817.276 12686237.272 10 0 59714 9900.00000 0 20172025.378 -3523133.309 15231247.697 10 0 59714 10800.00000 0 18424843.632 -2516036.158 17480847.936 10 0 59714 11700.00000 0 16549719.317 -1232841.834 19391481.531 10 0 59714 12600.00000 0 14610896.862 319647.210 20926169.626 10 0 59714 13500.00000 0 12671845.398 2122175.613 22055217.779 10 0 59714 14400.00000 0 10792702.712 4143594.236 22756782.575 10 0 59714 15300.00000 0 9027877.733 6341922.439 23017288.072 10 0 59714 16200.00000 0 7423910.241 8665870.438 22831684.789 10 0 59714 17100.00000 0 6017675.610 11056759.818 22203546.748 10 0 59714 18000.00000 0 4835008.238 13450763.785 21145004.773 10 0 59714 18900.00000 0 3889799.864 15781375.642 19676517.092 10 0 59714 19800.00000 0 3183609.534 17982004.366 17826481.058 10 0 59714 20700.00000 0 2705800.900 19988590.538 15630692.611 10 0 59714 21600.00000 0 2434200.694 21742134.779 13131662.887 10 0 59714 22500.00000 0 2336250.589 23191033.941 10377804.048 10 0 59714 23400.00000 0 2370604.043 24293127.808 7422499.124 10 0 59714 24300.00000 0 2489100.892 25017370.662 4323073.037 10 0 59714 25200.00000 0 2639036.405 25345057.397 1139684.136 10 0 59714 26100.00000 0 2765628.794 25270552.128 -2065842.415 10 0 59714 27000.00000 0 2814580.458 24801488.045 -5231216.727 10 0 59714 27900.00000 0 2734623.931 23958429.362 -8294898.095 10 0 59714 28800.00000 0 2479943.850 22774008.916 -11197296.476 10 0 59714 29700.00000 0 2012371.265 21291577.164 -13881937.557 10 0 59714 30600.00000 0 1303256.039 19563419.003 -16296568.060 10 0 59714 31500.00000 0 334936.710 17648613.234 -18394179.006 10 0 59714 32400.00000 0 -898255.913 15610624.525 -20133926.562 10 0 59714 33300.00000 0 -2389505.349 13514729.035 -21481932.092 10 0 59714 34200.00000 0 -4119548.562 11425381.831 -22411945.571 10 0 59714 35100.00000 0 -6057247.398 9403636.481 -22905859.330 10 0 59714 36000.00000 0 -8160669.679 7504724.862 -22954062.120 10 0 59714 36900.00000 0 -10378635.630 5775898.371 -22555626.602 10 0 59714 37800.00000 0 -12652665.770 4254620.471 -21718326.698 10 0 59714 38700.00000 0 -14919249.388 2967185.578 -20458484.495 10 0 59714 39600.00000 0 -17112339.071 1927821.319 -18800649.732 10 0 59714 40500.00000 0 -19165967.200 1138310.622 -16777118.180 10 0 59714 41400.00000 0 -21016875.032 588148.170 -14427298.324 10 0 59714 42300.00000 0 -22607044.362 255223.172 -11796938.923 10 0 59714 43200.00000 0 -23886025.809 106998.088 -8937232.743 10 0 59714 44100.00000 0 -24812966.200 102132.014 -5903814.265 10 0 59714 45000.00000 0 -25358250.309 192478.655 -2755671.496 10 0 59714 45900.00000 0 -25504688.380 325372.953 446006.383 10 0 59714 46800.00000 0 -25248200.303 446108.430 3639022.488 10 0 59714 47700.00000 0 -24597968.460 500499.380 6761382.928 10 0 59714 48600.00000 0 -23576053.783 437418.753 9752500.771 10 0 59714 49500.00000 0 -22216492.048 211203.897 12554369.688 10 0 59714 50400.00000 0 -20563909.121 -216171.778 15112684.475 10 0 59714 51300.00000 0 -18671713.879 -873252.997 17377887.071 10 0 59714 52200.00000 0 -16599944.788 -1777660.529 19306118.511 10 0 59714 53100.00000 0 -14412860.223 -2935113.513 20860059.144 10 0 59714 54000.00000 0 -12176372.741 -4338957.485 22009641.982 10 0 59714 54900.00000 0 -9955433.530 -5970218.339 22732626.425 10 0 59714 55800.00000 0 -7811474.988 -7798180.609 23015022.269 10 0 59714 56700.00000 0 -5800016.559 -9781466.936 22851356.589 10 0 59714 57600.00000 0 -3968531.997 -11869574.956 22244778.846 10 0 59714 58500.00000 0 -2354665.446 -14004808.948 21207002.297 10 0 59714 59400.00000 0 -984869.221 -16124527.331 19758082.612 10 0 59714 60300.00000 0 126481.096 -18163613.934 17926037.346 10 0 59714 61200.00000 0 977458.196 -20057071.363 15746312.760 10 0 59714 62100.00000 0 1578426.365 -21742629.457 13261107.260 10 0 59714 63000.00000 0 1951363.602 -23163260.742 10518563.377 10 0 59714 63900.00000 0 2128691.155 -24269498.050 7571842.974 10 0 59714 64800.00000 0 2151659.871 -25021457.340 4478102.700 10 0 59714 65700.00000 0 2068361.449 -25390480.565 1297388.947 10 0 59714 66600.00000 0 1931448.679 -25360328.927 -1908526.457 10 0 59714 67500.00000 0 1795661.368 -24927875.563 -5077347.195 10 0 59714 68400.00000 0 1715263.126 -24103267.565 -8147466.430 10 0 59714 69300.00000 0 1741498.290 -22909549.543 -11059169.536 10 0 59714 70200.00000 0 1920177.600 -21381763.727 -13755801.586 10 0 59714 71100.00000 0 2289496.036 -19565563.697 -16184876.197 10 0 59714 72000.00000 0 2878176.446 -17515399.517 -18299103.369 10 0 59714 72900.00000 0 3704018.823 -15292350.112 -20057315.835 10 0 59714 73800.00000 0 4772918.000 -12961693.604 -21425275.471 10 0 59714 74700.00000 0 6078392.530 -10590317.402 -22376343.733 10 0 59714 75600.00000 0 7601645.998 -8244076.348 -22892003.031 10 0 59714 76500.00000 0 9312159.389 -5985209.339 -22962218.805 10 0 59714 77400.00000 0 11168790.677 -3869922.260 -22585635.301 10 0 59714 78300.00000 0 13121336.335 -1946237.834 -21769601.296 10 0 59714 79200.00000 0 15112489.974 -252201.646 -20530025.302 10 0 59714 80100.00000 0 17080116.389 1185481.414 -18891063.120 10 0 59714 81000.00000 0 18959745.918 2352324.326 -16884643.881 10 0 59714 81900.00000 0 20687184.695 3246413.369 -14549843.860 10 0 59714 82800.00000 0 22201131.229 3878228.320 -11932120.484 10 0 59714 83700.00000 0 23445689.417 4269936.728 -9082421.677 10 0 59714 84600.00000 0 24372672.576 4454193.740 -6056188.311 10 0 59714 85500.00000 0 24943601.550 4472499.774 -2912269.739 10 0 59715 0.00000 0 25131313.104 4373187.095 288225.649 10 0 59715 900.00000 0 24921111.480 4209121.837 3483123.531 10 0 59715 1800.00000 0 24311414.930 4035220.024 6610392.260 10 0 59715 2700.00000 0 23313871.087 3905883.468 9609348.818 10 0 59715 3600.00000 0 21952936.645 3872464.736 12421834.125 10 0 59715 4500.00000 0 20264939.769 3980868.672 14993336.611 10 0 59715 5400.00000 0 18296665.032 4269391.872 17274042.325 10 0 59715 6300.00000 0 16103520.352 4766891.220 19219791.872 10 0 59715 7200.00000 0 13747362.559 5491358.471 20792926.472 10 0 59715 8100.00000 0 11294071.940 6448960.783 21963007.814 10 0 59715 9000.00000 0 8810976.055 7633587.606 22707398.899 10 0 59715 9900.00000 0 6364229.072 9026923.232 23011695.588 10 0 59715 10800.00000 0 4016254.217 10599042.665 22870001.346 10 0 59715 11700.00000 0 1823354.173 12309506.848 22285040.416 10 0 59715 12600.00000 0 -166412.780 14108912.718 21268107.322 10 0 59715 13500.00000 0 -1915004.054 15940834.767 19838853.514 10 0 59715 14400.00000 0 -3395739.135 17744078.552 18024914.635 10 0 59715 15300.00000 0 -4594166.009 19455153.414 15861384.765 10 0 59715 16200.00000 0 -5508412.355 21010862.301 13390146.763 10 0 59715 17100.00000 0 -6149007.450 22350901.306 10659070.489 10 0 59715 18000.00000 0 -6538182.592 23420360.563 7721093.448 10 0 59715 18900.00000 0 -6708679.687 24172021.779 4633200.758 10 0 59715 19800.00000 0 -6702118.331 24568355.685 1455323.587 10 0 59715 20700.00000 0 -6566990.357 24583134.787 -1750822.768 10 0 59715 21600.00000 0 -6356366.866 24202592.674 -4922938.630 10 0 59715 22500.00000 0 -6125415.062 23426079.972 -7999353.885 10 0 59715 23400.00000 0 -5928830.607 22266188.145 -10920231.917 10 0 59715 24300.00000 0 -5818294.950 20748334.778 -13628739.470 10 0 59715 25200.00000 0 -5840066.265 18909826.710 -16072158.990 10 0 59715 26100.00000 0 -6032807.039 16798439.542 -18202921.038 10 0 59715 27000.00000 0 -6425741.371 14470572.446 -19979536.170 10 0 59715 27900.00000 0 -7037221.090 11989055.128 -21367407.700 10 0 59715 28800.00000 0 -7873762.426 9420698.512 -22339509.224 10 0 59715 29700.00000 0 -8929595.001 6833691.323 -22876913.586 10 0 59715 30600.00000 0 -10186743.204 4294951.139 -22969162.982 10 0 59715 31500.00000 0 -11615637.411 1867540.389 -22614472.989 10 0 59715 32400.00000 0 -13176230.109 -391745.281 -21819766.630 10 0 59715 33300.00000 0 -14819570.623 -2434516.105 -20600537.848 10 0 59715 34200.00000 0 -16489772.630 -4222566.121 -18980547.126 10 0 59715 35100.00000 0 -18126292.028 -5729216.636 -16991355.209 10 0 59715 36000.00000 0 -19666419.543 -6940170.248 -14671704.095 10 0 59715 36900.00000 0 -21047883.138 -7853841.060 -12066757.528 10 0 59715 37800.00000 0 -22211450.768 -8481148.924 -9227216.073 10 0 59715 38700.00000 0 -23103423.763 -8844788.167 -6208324.349 10 0 59715 39600.00000 0 -23677915.702 -8978003.336 -3068790.313 10 0 59715 40500.00000 0 -23898820.925 -8922925.474 130361.751 10 0 59715 41400.00000 0 -23741389.728 -8728540.801 3326981.668 10 0 59715 42300.00000 0 -23193344.242 -8448379.110 6459003.367 10 0 59715 43200.00000 0 -22255488.541 -8138020.788 9465650.437 10 0 59715 44100.00000 0 -20941787.604 -7852528.667 12288613.663 10 0 59715 45000.00000 0 -19278912.281 -7643913.709 14873177.599 10 0 59715 45900.00000 0 -17305269.727 -7558741.734 17169274.684 10 0 59715 46800.00000 0 -15069559.997 -7635982.060 19132447.113 10 0 59715 47700.00000 0 -12628919.089 -7905188.447 20724698.659 10 0 59715 48600.00000 0 -10046725.481 -8385088.580 21915221.009 10 0 59715 49500.00000 0 -7390160.751 -9082641.141 22680981.680 10 0 59715 50400.00000 0 -4727624.754 -9992600.000 23007163.113 10 0 59715 51300.00000 0 -2126111.414 -11097604.006 22887445.304 10 0 59715 52200.00000 0 351347.455 -12368789.227 22324127.053 10 0 59715 53100.00000 0 2648065.663 -13766898.816 21328083.610 10 0 59715 54000.00000 0 4715816.132 -15243845.248 19918561.358 10 0 59715 54900.00000 0 6516587.952 -16744660.870 18122812.885 10 0 59715 55800.00000 0 8023915.062 -18209756.432 15975578.661 10 0 59715 56700.00000 0 9223722.197 -19577394.288 13518424.269 10 0 59715 57600.00000 0 10114653.517 -20786273.639 10798944.873 10 0 59715 58500.00000 0 10707870.586 -21778120.004 7869851.314 10 0 59715 59400.00000 0 11026328.533 -22500170.457 4787954.623 10 0 59715 60300.00000 0 11103561.010 -22907450.017 1613068.008 10 0 59715 61200.00000 0 10982025.247 -22964742.794 -1593152.641 10 0 59715 62100.00000 0 10711077.237 -22648174.001 -4768407.211 10 0 59715 63000.00000 0 10344662.927 -21946334.981 -7850965.252 10 0 59715 63900.00000 0 9938823.438 -20860902.526 -10780871.040 10 0 59715 64800.00000 0 9549120.554 -19406724.990 -13501115.776 10 0 59715 65700.00000 0 9228092.165 -17611370.218 -15958753.386 10 0 59715 66600.00000 0 9022846.242 -15514153.122 -18105937.461 10 0 59715 67500.00000 0 8972896.052 -13164682.659 -19900858.593 10 0 59715 68400.00000 0 9108329.145 -10620988.327 -21308563.454 10 0 59715 69300.00000 0 9448388.362 -7947304.031 -22301639.323 10 0 59715 70200.00000 0 10000525.673 -5211601.517 -22860750.636 10 0 59715 71100.00000 0 10759969.558 -2482975.978 -22975017.084 10 0 59715 72000.00000 0 11709824.790 171007.276 -22642225.890 10 0 59715 72900.00000 0 12821701.000 2686894.827 -21868874.230 10 0 59715 73800.00000 0 14056843.952 5007748.639 -20670040.998 10 0 59715 74700.00000 0 15367722.125 7085271.280 -19069090.490 10 0 59715 75600.00000 0 16700001.936 8881565.037 -17097213.812 10 0 59715 76500.00000 0 17994828.388 10370452.464 -14792817.039 10 0 59715 77400.00000 0 19191314.886 11538304.310 -12200768.204 10 0 59715 78300.00000 0 20229137.147 12384341.739 -9371518.091 10 0 59715 79200.00000 0 21051121.533 12920401.804 -6360112.280 10 0 59715 80100.00000 0 21605718.444 13170177.827 -3225114.275 10 0 59715 81000.00000 0 21849256.215 13167968.526 -27461.249 10 0 59715 81900.00000 0 21747880.325 12956990.419 3170724.760 10 0 59715 82800.00000 0 21279096.319 12587326.365 6307346.325 10 0 59715 83700.00000 0 20432851.475 12113598.223 9321536.909 10 0 59715 84600.00000 0 19212109.961 11592462.973 12154840.244 10 0 59715 85500.00000 0 17632897.555 11080038.667 14752339.815 10 0 59716 0.00000 0 15723814.331 10629369.153 17063716.774 10 0 59716 900.00000 0 13525034.691 10288034.238 19044217.540 10 0 59716 1800.00000 0 11086839.063 10096006.190 20655510.112 10 0 59716 2700.00000 0 8467734.595 10083841.501 21866417.743 10 0 59716 3600.00000 0 5732244.869 10271283.998 22653513.687 10 0 59716 4500.00000 0 2948458.569 10666337.270 23001567.799 10 0 59716 5400.00000 0 185437.734 11264845.134 22903837.018 10 0 59716 6300.00000 0 -2489408.389 12050597.795 22362194.654 10 0 59716 7200.00000 0 -5012876.454 12995959.656 21387096.124 10 0 59716 8100.00000 0 -7328344.807 14062993.179 19997381.674 10 0 59716 9000.00000 0 -9387874.813 15205032.700 18219919.268 10 0 59716 9900.00000 0 -11153951.599 16368643.338 16089093.724 10 0 59716 10800.00000 0 -12600792.856 17495883.979 13646150.923 10 0 59716 11700.00000 0 -13715171.867 18526780.353 10938408.596 10 0 59716 12600.00000 0 -14496720.871 19401905.056 8018347.967 10 0 59716 13500.00000 0 -14957702.380 20064956.385 4942602.900 10 0 59716 14400.00000 0 -15122258.216 20465227.427 1770865.490 10 0 59716 15300.00000 0 -15025167.942 20559860.905 -1435270.927 10 0 59716 16200.00000 0 -14710169.106 20315793.904 -4613508.912 10 0 59716 17100.00000 0 -14227910.398 19711309.253 -7702060.682 10 0 59716 18000.00000 0 -13633624.456 18737126.772 -10640854.254 10 0 59716 18900.00000 0 -12984619.208 17396986.830 -13372707.926 10 0 59716 19800.00000 0 -12337694.385 15707700.054 -15844449.477 10 0 59716 20700.00000 0 -11746593.181 13698659.647 -18007957.584 10 0 59716 21600.00000 0 -11259597.554 11410835.440 -19821104.604 10 0 59716 22500.00000 0 -10917369.529 8895290.697 -21248581.948 10 0 59716 23400.00000 0 -10751130.429 6211282.918 -22262591.622 10 0 59716 24300.00000 0 -10781255.486 3424027.303 -22843390.352 10 0 59716 25200.00000 0 -11016343.680 602215.726 -22979675.667 10 0 59716 26100.00000 0 -11452802.388 -2184605.680 -22668806.422 10 0 59716 27000.00000 0 -12074964.634 -4868691.357 -21916853.551 10 0 59716 27900.00000 0 -12855734.110 -7386673.394 -20738480.109 10 0 59716 28800.00000 0 -13757730.786 -9681953.788 -19156653.020 10 0 59716 29700.00000 0 -14734888.679 -11706812.801 -17202192.204 10 0 59716 30600.00000 0 -15734438.174 -13424146.195 -14913165.922 10 0 59716 31500.00000 0 -16699188.960 -14808759.763 -12334144.343 10 0 59716 32400.00000 0 -17570016.844 -15848168.291 -9515326.117 10 0 59716 33300.00000 0 -18288449.042 -16542866.883 -6511555.307 10 0 59716 34200.00000 0 -18799238.334 -16906064.953 -3381248.408 10 0 59716 35100.00000 0 -19052816.968 -16962895.771 -185252.870 10 0 59716 36000.00000 0 -19007526.407 -16749136.685 3014340.014 10 0 59716 36900.00000 0 -18631528.646 -16309495.642 6155404.117 10 0 59716 37800.00000 0 -17904318.438 -15695537.785 9176985.414 10 0 59716 38700.00000 0 -16817772.710 -14963340.780 12020483.147 10 0 59716 39600.00000 0 -15376693.090 -14170978.605 14630782.238 10 0 59716 40500.00000 0 -13598818.766 -13375940.327 16957315.303 10 0 59716 41400.00000 0 -11514309.054 -12632592.667 18955034.318 10 0 59716 42300.00000 0 -9164717.092 -11989792.858 20585273.866 10 0 59716 43200.00000 0 -6601497.008 -11488751.563 21816490.386 10 0 59716 44100.00000 0 -3884105.908 -11161234.932 22624864.165 10 0 59716 45000.00000 0 -1077778.679 -11028180.468 22994753.444 10 0 59716 45900.00000 0 1748933.352 -11098784.126 22918992.759 10 0 59716 46800.00000 0 4526759.284 -11370096.497 22399030.255 10 0 59716 47700.00000 0 7188334.868 -11827144.853 21444901.559 10 0 59716 48600.00000 0 9670750.838 -12443576.184 20075040.525 10 0 59716 49500.00000 0 11917919.124 -13182794.785 18315929.931 10 0 59716 50400.00000 0 13882659.923 -13999547.424 16201598.060 10 0 59716 51300.00000 0 15528423.915 -14841890.456 13772969.848 10 0 59716 52200.00000 0 16830578.697 -15653457.090 11077083.961 10 0 59716 53100.00000 0 17777206.139 -16375930.191 8166189.962 10 0 59716 54000.00000 0 18369377.637 -16951616.950 5096742.109 10 0 59716 54900.00000 0 18620895.834 -17326017.022 1928308.595 10 0 59716 55800.00000 0 18557513.591 -17450275.517 -1277582.867 10 0 59716 56700.00000 0 18215663.108 -17283416.601 -4458640.760 10 0 59716 57600.00000 0 17640748.785 -16794262.325 -7553023.282 10 0 59716 58500.00000 0 16885075.975 -15962954.317 -10500545.500 10 0 59716 59400.00000 0 16005503.386 -14782012.533 -13243855.998 10 0 59716 60300.00000 0 15060918.710 -13256884.718 -15729559.434 10 0 59716 61200.00000 0 14109644.627 -11405961.794 -17909262.381 10 0 59716 62100.00000 0 13206885.360 -9260056.905 -19740521.493 10 0 59716 63000.00000 0 12402322.156 -6861368.532 -21187675.138 10 0 59716 63900.00000 0 11737959.709 -4261969.976 -22222541.891 10 0 59716 64800.00000 0 11246314.814 -1521887.373 -22824972.206 10 0 59716 65700.00000 0 10949023.894 1293154.244 -22983242.461 10 0 59716 66600.00000 0 10855928.238 4114223.330 -22694283.703 10 0 59716 67500.00000 0 10964675.496 6871809.204 -21963740.744 10 0 59716 68400.00000 0 11260854.018 9498475.367 -20805860.494 10 0 59716 69300.00000 0 11718654.096 11931428.466 -19243211.783 10 0 59716 70200.00000 0 12302027.783 14114896.289 -17306242.202 10 0 59716 71100.00000 0 12966297.836 16002216.211 -15032680.675 10 0 59716 72000.00000 0 13660147.297 17557547.521 -12466797.586 10 0 59716 72900.00000 0 14327904.987 18757136.986 -9658537.140 10 0 59716 73800.00000 0 14912029.809 19590086.031 -6662539.219 10 0 59716 74700.00000 0 15355688.103 20058588.510 -3537070.345 10 0 59716 75600.00000 0 15605314.534 20177630.748 -342885.073 10 0 59716 76500.00000 0 15613047.825 19974168.207 2857959.360 10 0 59716 77400.00000 0 15338938.002 19485814.987 6003311.435 10 0 59716 78300.00000 0 14752831.764 18759102.979 9032132.859 10 0 59716 79200.00000 0 13835856.293 17847385.300 11885681.467 10 0 59716 80100.00000 0 12581438.933 16808473.273 14508646.468 10 0 59716 81000.00000 0 10995819.768 15702107.080 16850214.360 10 0 59716 81900.00000 0 9098035.401 14587366.692 18865045.426 10 0 59716 82800.00000 0 6919374.359 13520131.692 20514142.690 10 0 59716 83700.00000 0 4502326.307 12550696.130 21765597.566 10 0 59716 84600.00000 0 1899068.096 11721637.609 22595198.858 10 0 59716 85500.00000 0 -830451.340 11066029.039 22986894.347 10 0 59717 0.00000 0 -3620748.736 10606066.999 22933096.945 10 0 59717 900.00000 0 -6403277.032 10352173.107 22434829.960 10 0 59717 1800.00000 0 -9109023.988 10302606.035 21501709.067 10 0 59717 2700.00000 0 -11671137.771 10443599.238 20151761.063 10 0 59717 3600.00000 0 -14027468.368 10750019.354 18411082.361 10 0 59717 4500.00000 0 -16122922.089 11186517.667 16313343.026 10 0 59717 5400.00000 0 -17911532.133 11709126.900 13899144.911 10 0 59717 6300.00000 0 -19358159.805 12267236.822 11215245.111 10 0 59717 7200.00000 0 -20439755.828 12805866.182 8313658.746 10 0 59717 8100.00000 0 -21146129.253 13268135.678 5250657.484 10 0 59717 9000.00000 0 -21480191.766 13597837.831 2085682.520 10 0 59717 9900.00000 0 -21457666.947 13741995.117 -1119807.203 10 0 59717 10800.00000 0 -21106276.512 13653297.735 -4303529.231 10 0 59717 11700.00000 0 -20464437.668 13292317.035 -7403590.864 10 0 59717 12600.00000 0 -19579526.349 12629399.827 -10359697.235 10 0 59717 13500.00000 0 -18505779.706 11646161.990 -13114330.108 10 0 59717 14400.00000 0 -17301926.534 10336516.656 -15613873.705 10 0 59717 15300.00000 0 -16028645.976 8707191.826 -17809664.897 10 0 59717 16200.00000 0 -14745962.125 6777713.922 -19658946.704 10 0 59717 17100.00000 0 -13510684.806 4579856.257 -21125706.124 10 0 59717 18000.00000 0 -12374004.846 2156574.174 -22181379.568 10 0 59717 18900.00000 0 -11379345.379 -439529.820 -22805412.049 10 0 59717 19800.00000 0 -10560559.820 -3148147.777 -22985659.191 10 0 59717 20700.00000 0 -9940552.352 -5903534.507 -22718624.207 10 0 59717 21600.00000 0 -9530378.715 -8637008.226 -22009525.345 10 0 59717 22500.00000 0 -9328864.766 -11279579.868 -20872192.523 10 0 59717 23400.00000 0 -9322758.271 -13764601.685 -19328795.258 10 0 59717 24300.00000 0 -9487406.811 -16030325.080 -17409407.273 10 0 59717 25200.00000 0 -9787932.367 -18022261.343 -15151416.326 10 0 59717 26100.00000 0 -10180852.112 -19695247.104 -12598790.970 10 0 59717 27000.00000 0 -10616076.043 -21015128.898 -9801218.796 10 0 59717 27900.00000 0 -11039196.078 -21959997.213 -6813133.252 10 0 59717 28800.00000 0 -11393968.938 -22520919.255 -3692648.578 10 0 59717 29700.00000 0 -11624887.011 -22702141.098 -500424.142 10 0 59717 30600.00000 0 -11679727.674 -22520752.031 2701519.160 10 0 59717 31500.00000 0 -11511972.738 -22005826.743 5851006.716 10 0 59717 32400.00000 0 -11082995.421 -21197083.065 8886918.262 10 0 59717 33300.00000 0 -10363922.155 -20143112.881 11750372.519 10 0 59717 34200.00000 0 -9337090.575 -18899261.800 14385865.269 10 0 59717 35100.00000 0 -7997042.173 -17525247.470 16742339.108 10 0 59717 36000.00000 0 -6351007.669 -16082616.876 18774164.752 10 0 59717 36900.00000 0 -4418864.480 -14632149.329 20442015.632 10 0 59717 37800.00000 0 -2232567.555 -13231313.536 21713619.907 10 0 59717 38700.00000 0 164923.457 -11931884.435 22564376.454 10 0 59717 39600.00000 0 2721176.950 -10777818.526 22977823.900 10 0 59717 40500.00000 0 5376219.528 -9803475.391 22945954.543 10 0 59717 41400.00000 0 8064784.945 -9032258.619 22469367.681 10 0 59717 42300.00000 0 10718789.935 -8475732.002 21557259.610 10 0 59717 43200.00000 0 13269935.894 -8133247.178 20227250.358 10 0 59717 44100.00000 0 15652329.988 -7992097.877 18505049.959 10 0 59717 45000.00000 0 17805018.116 -8028194.141 16423969.933 10 0 59717 45900.00000 0 19674325.576 -8207228.354 14024288.349 10 0 59717 46800.00000 0 21215908.764 -8486284.411 11352479.609 10 0 59717 47700.00000 0 22396432.720 -8815822.703 8460322.801 10 0 59717 48600.00000 0 23194804.623 -9141957.634 5403904.955 10 0 59717 49500.00000 0 23602911.456 -9408931.754 2242537.757 10 0 59717 50400.00000 0 23625830.569 -9561681.952 -962391.531 10 0 59717 51300.00000 0 23281503.936 -9548388.814 -4148612.737 10 0 59717 52200.00000 0 22599889.384 -9322900.560 -7254185.665 10 0 59717 53100.00000 0 21621624.218 -8846927.949 -10218708.991 10 0 59717 54000.00000 0 20396257.362 -8091915.951 -12984501.078 10 0 59717 54900.00000 0 18980124.460 -7040511.425 -15497729.007 10 0 59717 55800.00000 0 17433955.616 -5687563.173 -17709463.039 10 0 59717 56700.00000 0 15820316.797 -4040610.369 -19576635.413 10 0 59717 57600.00000 0 14200992.888 -2119837.050 -21062884.321 10 0 59717 58500.00000 0 12634422.852 42506.974 -22139266.250 10 0 59717 59400.00000 0 11173295.062 2403195.975 -22784822.652 10 0 59717 60300.00000 0 9862403.910 4909584.491 -22986989.882 10 0 59717 61200.00000 0 8736857.706 7501565.685 -22741844.382 10 0 59717 62100.00000 0 7820712.782 10113850.782 -22054178.448 10 0 59717 63000.00000 0 7126090.621 12678475.044 -20937405.163 10 0 59717 63900.00000 0 6652814.395 15127425.927 -19413294.428 10 0 59717 64800.00000 0 6388579.208 17395284.107 -17511545.328 10 0 59717 65700.00000 0 6309647.755 19421767.320 -15269203.230 10 0 59717 66600.00000 0 6382040.898 21154070.929 -12729933.189 10 0 59717 67500.00000 0 6563171.645 22548907.820 -9943164.061 10 0 59717 68400.00000 0 6803852.290 23574162.749 -6963120.345 10 0 59717 69300.00000 0 7050588.678 24210092.507 -3847761.157 10 0 59717 70200.00000 0 7248063.484 24450022.495 -657647.542 10 0 59717 71100.00000 0 7341702.446 24300511.575 2545239.276 10 0 59717 72000.00000 0 7280214.271 23780979.576 5698704.979 10 0 59717 72900.00000 0 7017996.178 22922814.397 8741550.719 10 0 59717 73800.00000 0 6517303.050 21767997.488 11614759.394 10 0 59717 74700.00000 0 5750088.401 20367306.537 14262636.455 10 0 59717 75600.00000 0 4699439.331 18778171.574 16633883.491 10 0 59717 76500.00000 0 3360544.924 17062274.898 18682584.300 10 0 59717 77400.00000 0 1741157.209 15282995.470 20369085.109 10 0 59717 78300.00000 0 -138475.073 13502804.390 21660752.942 10 0 59717 79200.00000 0 -2246197.808 11780719.592 22532598.557 10 0 59717 80100.00000 0 -4539044.111 10169925.097 22967752.895 10 0 59717 81000.00000 0 -6964783.874 8715652.985 22957788.750 10 0 59717 81900.00000 0 -9463867.227 7453415.105 22502882.047 10 0 59717 82800.00000 0 -11971682.600 6407657.145 21611809.844 10 0 59717 83700.00000 0 -14421037.234 5590890.092 20301785.019 10 0 59717 84600.00000 0 -16744758.689 5003334.540 18598130.311 10 0 59717 85500.00000 0 -18878310.535 4633092.158 16533797.216 99